When you browse on this site, cookies collect data to enhance your experience and personalize the content and advertising you see.
Visit our Privacy Policy to learn more. By continuing to use the site, you agree to this use of cookies and data.
  • In Österreich
  • Länderverzeichnis
  • Für 7 Tage
  • Wassertemperatur
  • Wetterkarte
  • News
  • Widgets
  • user-avatar
    Anmelden

    Stündliche Wetter Jacala

    Heute, 18 Januar, Samstag

    Zeit Temperatur Niederschläge Wind Luftdruck Luftfeuchtigkeit
    00:00 +15°C° 0.1 mm 1 m/S 634 mmHg 97%
    01:00 +14°C° 0.1 mm 0 m/S 633 mmHg 96%
    02:00 +14°C° 0.1 mm 0 m/S 633 mmHg 96%
    03:00 +14°C° 0.1 mm 0 m/S 633 mmHg 96%
    04:00 +14°C° 0.1 mm 0 m/S 633 mmHg 95%
    05:00 +14°C° 0 mm 0 m/S 633 mmHg 95%
    06:00 +14°C° 0 mm 0 m/S 634 mmHg 92%
    07:00 +15°C° 0 mm 0 m/S 634 mmHg 89%
    08:00 +15°C° 0 mm 0 m/S 635 mmHg 86%
    09:00 +18°C° 0 mm 1 m/S 635 mmHg 81%
    10:00 +19°C° 0 mm 1 m/S 635 mmHg 76%
    11:00 +20°C° 0 mm 1 m/S 636 mmHg 70%
    12:00 +21°C° 0.1 mm 1 m/S 635 mmHg 69%
    13:00 +20°C° 0.1 mm 2 m/S 634 mmHg 68%
    14:00 +21°C° 0.1 mm 2 m/S 634 mmHg 67%
    15:00 +19°C° 0.1 mm 2 m/S 633 mmHg 74%
    16:00 +18°C° 0.1 mm 2 m/S 633 mmHg 81%
    17:00 +17°C° 0.1 mm 2 m/S 633 mmHg 88%
    18:00 +16°C° 0.1 mm 1 m/S 633 mmHg 91%
    19:00 +16°C° 0.1 mm 1 m/S 634 mmHg 93%
    20:00 +15°C° 0.1 mm 1 m/S 634 mmHg 96%
    21:00 +15°C° 0.1 mm 1 m/S 634 mmHg 96%
    22:00 +14°C° 0.1 mm 1 m/S 634 mmHg 95%
    23:00 +13°C° 0.1 mm 0 m/S 634 mmHg 94%

    Morgen, 19 Januar, Sonntag

    Zeit Temperatur Niederschläge Wind Luftdruck Luftfeuchtigkeit
    00:00 +14°C° 0.2 mm 1 m/S 634 mmHg 95%
    01:00 +14°C° 0.2 mm 1 m/S 634 mmHg 95%
    02:00 +14°C° 0.2 mm 1 m/S 634 mmHg 95%
    03:00 +14°C° 0.8 mm 1 m/S 634 mmHg 96%
    04:00 +14°C° 0.8 mm 1 m/S 634 mmHg 97%
    05:00 +14°C° 0.8 mm 1 m/S 634 mmHg 98%
    06:00 +14°C° 1.9 mm 1 m/S 634 mmHg 98%
    07:00 +14°C° 1.9 mm 1 m/S 635 mmHg 98%
    08:00 +13°C° 1.9 mm 2 m/S 635 mmHg 97%
    09:00 +13°C° 1.6 mm 2 m/S 635 mmHg 97%
    10:00 +13°C° 1.6 mm 2 m/S 635 mmHg 97%
    11:00 +13°C° 1.6 mm 2 m/S 635 mmHg 97%
    12:00 +13°C° 0.6 mm 2 m/S 635 mmHg 97%
    13:00 +12°C° 0.6 mm 2 m/S 634 mmHg 97%
    14:00 +12°C° 0.6 mm 2 m/S 634 mmHg 96%
    15:00 +12°C° 0.2 mm 1 m/S 634 mmHg 97%
    16:00 +12°C° 0.2 mm 1 m/S 634 mmHg 97%
    17:00 +12°C° 0.2 mm 1 m/S 634 mmHg 97%
    18:00 +11°C° 0.4 mm 1 m/S 635 mmHg 97%
    19:00 +11°C° 0.4 mm 1 m/S 635 mmHg 97%
    20:00 +11°C° 0.4 mm 1 m/S 636 mmHg 97%
    21:00 +11°C° 0.4 mm 1 m/S 636 mmHg 97%
    22:00 +10°C° 0.4 mm 1 m/S 636 mmHg 97%
    23:00 +10°C° 0.4 mm 1 m/S 636 mmHg 97%

    übermorgen, 20 Januar, Montag

    Zeit Temperatur Niederschläge Wind Luftdruck Luftfeuchtigkeit
    00:00 +10°C° 0.7 mm 1 m/S 636 mmHg 97%
    01:00 +9°C° 0.7 mm 0 m/S 635 mmHg 97%
    02:00 +9°C° 0.7 mm 0 m/S 635 mmHg 97%
    03:00 +9°C° 0.2 mm 0 m/S 635 mmHg 97%
    04:00 +10°C° 0.2 mm 1 m/S 635 mmHg 97%
    05:00 +10°C° 0.2 mm 1 m/S 635 mmHg 98%
    06:00 +10°C° 0.2 mm 1 m/S 636 mmHg 97%
    07:00 +10°C° 0.2 mm 1 m/S 636 mmHg 97%
    08:00 +10°C° 0.2 mm 1 m/S 637 mmHg 97%
    09:00 +10°C° 0.1 mm 1 m/S 637 mmHg 96%
    10:00 +10°C° 0.1 mm 1 m/S 637 mmHg 96%
    11:00 +11°C° 0.1 mm 1 m/S 637 mmHg 95%
    12:00 +11°C° 0 mm 1 m/S 636 mmHg 94%
    13:00 +11°C° 0 mm 1 m/S 636 mmHg 93%
    14:00 +11°C° 0 mm 1 m/S 635 mmHg 93%
    15:00 +11°C° 0.1 mm 1 m/S 635 mmHg 94%
    16:00 +10°C° 0.1 mm 1 m/S 635 mmHg 95%
    17:00 +10°C° 0.1 mm 1 m/S 635 mmHg 97%
    18:00 +10°C° 0 mm 1 m/S 635 mmHg 97%
    19:00 +10°C° 0 mm 1 m/S 636 mmHg 97%
    20:00 +10°C° 0 mm 1 m/S 636 mmHg 97%
    21:00 +10°C° 0 mm 1 m/S 636 mmHg 97%
    22:00 +9°C° 0 mm 0 m/S 636 mmHg 97%
    23:00 +9°C° 0 mm 0 m/S 636 mmHg 97%

    21 Januar, Dienstag

    Zeit Temperatur Niederschläge Wind Luftdruck Luftfeuchtigkeit
    00:00 +9°C° 0 mm 0 m/S 636 mmHg 97%
    01:00 +9°C° 0 mm 0 m/S 635 mmHg 97%
    02:00 +9°C° 0 mm 0 m/S 635 mmHg 97%
    03:00 +9°C° 0 mm 0 m/S 635 mmHg 97%
    04:00 +9°C° 0 mm 0 m/S 634 mmHg 97%
    05:00 +9°C° 0 mm 0 m/S 634 mmHg 97%
    06:00 +9°C° 0 mm 0 m/S 635 mmHg 94%
    07:00 +11°C° 0 mm 1 m/S 635 mmHg 91%
    08:00 +12°C° 0 mm 1 m/S 635 mmHg 88%
    09:00 +13°C° 0 mm 1 m/S 635 mmHg 82%
    10:00 +14°C° 0 mm 1 m/S 635 mmHg 77%
    11:00 +16°C° 0 mm 1 m/S 635 mmHg 71%
    12:00 +15°C° 0 mm 1 m/S 635 mmHg 73%
    13:00 +15°C° 0 mm 2 m/S 634 mmHg 76%
    14:00 +15°C° 0 mm 2 m/S 633 mmHg 78%
    15:00 +14°C° 0 mm 2 m/S 632 mmHg 82%
    16:00 +13°C° 0 mm 2 m/S 632 mmHg 87%
    17:00 +12°C° 0 mm 1 m/S 631 mmHg 91%
    18:00 +12°C° 0 mm 1 m/S 631 mmHg 92%
    19:00 +11°C° 0 mm 1 m/S 632 mmHg 94%
    20:00 +11°C° 0 mm 1 m/S 632 mmHg 95%
    21:00 +10°C° 0 mm 0 m/S 632 mmHg 95%
    22:00 +9°C° 0 mm 0 m/S 632 mmHg 95%
    23:00 +9°C° 0 mm 0 m/S 631 mmHg 95%

    22 Januar, Mittwoch

    Zeit Temperatur Niederschläge Wind Luftdruck Luftfeuchtigkeit
    00:00 +9°C° 0 mm 0 m/S 631 mmHg 95%
    01:00 +9°C° 0 mm 0 m/S 630 mmHg 95%
    02:00 +8°C° 0 mm 0 m/S 630 mmHg 95%
    03:00 +8°C° 0 mm 0 m/S 630 mmHg 95%
    04:00 +8°C° 0 mm 0 m/S 629 mmHg 95%
    05:00 +8°C° 0 mm 0 m/S 629 mmHg 95%
    06:00 +10°C° 0 mm 0 m/S 630 mmHg 88%
    07:00 +12°C° 0 mm 0 m/S 631 mmHg 82%
    08:00 +14°C° 0 mm 0 m/S 632 mmHg 75%
    09:00 +18°C° 0 mm 1 m/S 632 mmHg 69%
    10:00 +20°C° 0 mm 1 m/S 632 mmHg 63%
    11:00 +20°C° 0 mm 2 m/S 632 mmHg 56%
    12:00 +21°C° 0 mm 2 m/S 631 mmHg 57%
    13:00 +21°C° 0 mm 2 m/S 631 mmHg 57%
    14:00 +21°C° 0 mm 2 m/S 630 mmHg 58%
    15:00 +19°C° 0.1 mm 2 m/S 629 mmHg 68%
    16:00 +17°C° 0.1 mm 2 m/S 629 mmHg 78%
    17:00 +15°C° 0.1 mm 2 m/S 628 mmHg 87%
    18:00 +15°C° 0.3 mm 1 m/S 629 mmHg 90%
    19:00 +14°C° 0.3 mm 1 m/S 629 mmHg 93%
    20:00 +13°C° 0.3 mm 0 m/S 630 mmHg 96%
    21:00 +12°C° 0.2 mm 0 m/S 629 mmHg 96%
    22:00 +12°C° 0.2 mm 0 m/S 629 mmHg 96%
    23:00 +12°C° 0.2 mm 0 m/S 629 mmHg 96%

    23 Januar, Donnerstag

    Zeit Temperatur Niederschläge Wind Luftdruck Luftfeuchtigkeit
    00:00 +12°C° 0 mm 0 m/S 629 mmHg 96%
    01:00 +12°C° 0 mm 0 m/S 629 mmHg 95%
    02:00 +11°C° 0 mm 0 m/S 628 mmHg 95%
    03:00 +11°C° 0.1 mm 0 m/S 628 mmHg 95%
    04:00 +11°C° 0.1 mm 0 m/S 628 mmHg 95%
    05:00 +12°C° 0.1 mm 0 m/S 628 mmHg 94%
    06:00 +12°C° 0.2 mm 0 m/S 629 mmHg 93%
    07:00 +12°C° 0.2 mm 0 m/S 630 mmHg 92%
    08:00 +13°C° 0.2 mm 0 m/S 630 mmHg 90%
    09:00 +13°C° 0.7 mm 0 m/S 630 mmHg 89%
    10:00 +13°C° 0.7 mm 0 m/S 630 mmHg 89%
    11:00 +14°C° 0.7 mm 1 m/S 630 mmHg 88%
    12:00 +15°C° 0.2 mm 1 m/S 629 mmHg 79%
    13:00 +16°C° 0.2 mm 2 m/S 629 mmHg 70%
    14:00 +18°C° 0.2 mm 3 m/S 629 mmHg 61%
    15:00 +17°C° 0 mm 2 m/S 629 mmHg 62%
    16:00 +16°C° 0 mm 2 m/S 628 mmHg 63%
    17:00 +15°C° 0 mm 2 m/S 628 mmHg 64%
    18:00 +15°C° 0 mm 2 m/S 628 mmHg 63%
    19:00 +14°C° 0 mm 2 m/S 628 mmHg 62%
    20:00 +14°C° 0 mm 2 m/S 628 mmHg 61%
    21:00 +14°C° 0 mm 2 m/S 628 mmHg 59%
    22:00 +14°C° 0 mm 2 m/S 628 mmHg 58%
    23:00 +13°C° 0 mm 2 m/S 628 mmHg 56%
    Mehr zeigen